Cosmos 1842 - Orbit

View from above orbital plane
View from above orbital plane
View from above satellite
View from above satellite

Ground track
Ground track

The orbit data is extracted from the following two-line orbital elements,

1 17911U 87038A   13145.15324152  .00002975  00000-0  21376-3 0  2057
2 17911 082.4903 201.2837 0011919 258.6408 101.3479 15.03894418418106
Epoch (UTC): 25 May 2013 03:40:40
Eccentricity: 0.0011919
inclination: 82.4903°
perigee height: 546 km
apogee height: 563 km
right ascension of ascending node: 201.2837°
argument of perigee: 258.6408°
revolutions per day: 15.03894418
mean anomaly at epoch: 101.3479°
orbit number at epoch: 41810

The dashed part of the orbit path shows where the satellite is in the earth's shadow,  

Developed and maintained by Chris Peat, Heavens-Above GmbH. Please read the updated FAQ before sending e-mail. Imprint. DLR